Weather History for Clarksburg, WV

Change the Weather History Date:

Saturday, July 13, 2013

  Actual Average Record
Temperature  
Mean Temperature 72 °F -  
Max Temperature 84 °F 84 °F 98 °F (1936)
Min Temperature 62 °F 61 °F 48 °F (1973)
Cooling Degree Days 7    
Growing Degree Days 22 (Base 50)    
Moisture  
Dew Point 64 °F    
Average Humidity 82    
Maximum Humidity 100    
Minimum Humidity 58    
Precipitation  
Precipitation 0.01 in - - ()
Sea Level Pressure  
Sea Level Pressure 30.14 in    
Wind  
Wind Speed 2 mph (NE)    
Max Wind Speed 8 mph    
Max Gust Speed -    
Visibility 6 miles    
Events Fog    
Averages and records for this station are not official NWS values.
T = Trace of Precipitation, MM = Missing Value Source: NWS Daily Summary

Daily Weather History Graph

Daily Weather History Graph

Search for Another Location

Airport:

Trip Planner

Search our weather history database for the weather conditions in past years. The results will help you decide how hot, cold, wet, or windy it might be!

Date:

Astronomy

Jul. 13, 2013 Rise Set
Actual Time 6:05 AM EDT 8:47 PM EDT
Civil Twilight 5:33 AM EDT 9:19 PM EDT
Nautical Twilight 4:54 AM EDT 9:58 PM EDT
Astronomical Twilight 4:09 AM EDT 10:42 PM EDT
Moon 11:17 AM EDT (7/13) 11:29 PM EDT (7/13)
Length of Visible Light 15h 45m
Length of Day
14h 42m
Waxing Crescent, 25% of the Moon is Illuminated
Jul 13
Waxing Crescent
Jul 15
First Quarter
Jul 22
Full
Jul 29
Last Quarter
Aug 6
New

Hourly Weather History & Observations

Time (EDT) Temp. Heat Index Dew Point Humidity Pressure Visibility Wind Dir Wind Speed Gust Speed Precip Events Conditions
12:41 AM 64.4 °F - 62.6 °F 94% 30.12 in 5.0 mi Calm Calm - N/A   Overcast
12:53 AM 64.0 °F - 62.1 °F 93% 30.08 in 5.0 mi NNE 3.5 mph - N/A   Mostly Cloudy
1:20 AM 62.6 °F - 60.8 °F 94% 30.12 in 4.0 mi NNE 3.5 mph - N/A   Mostly Cloudy
1:45 AM 62.6 °F - 62.6 °F 100% 30.12 in 5.0 mi Calm Calm - N/A   Overcast
1:53 AM 64.0 °F - 62.1 °F 93% 30.08 in 5.0 mi Calm Calm - N/A   Overcast
2:53 AM 63.0 °F - 61.0 °F 93% 30.07 in 5.0 mi Calm Calm - 0.01 in   Clear
3:53 AM 63.0 °F - 61.0 °F 93% 30.08 in 4.0 mi NNE 3.5 mph - N/A   Mostly Cloudy
4:27 AM 62.6 °F - 60.8 °F 94% 30.10 in 4.0 mi Calm Calm - N/A   Mostly Cloudy
4:41 AM 62.6 °F - 60.8 °F 94% 30.11 in 2.5 mi NNE 4.6 mph - N/A   Mostly Cloudy
4:53 AM 62.1 °F - 61.0 °F 96% 30.08 in 1.0 mi NNE 3.5 mph - N/A   Mist
5:01 AM 62.6 °F - 60.8 °F 94% 30.11 in 0.5 mi Calm Calm - N/A Fog Fog
5:53 AM 62.1 °F - 61.0 °F 96% 30.09 in 0.2 mi NNE 3.5 mph - N/A Fog Fog
6:25 AM 62.6 °F - 60.8 °F 94% 30.13 in 0.2 mi ENE 3.5 mph - N/A Fog Fog
6:53 AM 62.1 °F - 61.0 °F 96% 30.11 in 0.2 mi Calm Calm - N/A Fog Fog
7:13 AM 62.6 °F - 60.8 °F 94% 30.14 in 0.2 mi Calm Calm - N/A Fog Fog
7:24 AM 62.6 °F - 60.8 °F 94% 30.15 in 0.2 mi Calm Calm - N/A Fog Fog
7:45 AM 62.6 °F - 60.8 °F 94% 30.16 in 0.2 mi Calm Calm - N/A Fog Fog
7:53 AM 62.1 °F - 61.0 °F 96% 30.13 in 0.2 mi Calm Calm - N/A Fog Fog
8:24 AM 62.6 °F - 62.6 °F 100% 30.17 in 2.0 mi East 3.5 mph - N/A   Overcast
8:32 AM 62.6 °F - 62.6 °F 100% 30.17 in 5.0 mi East 3.5 mph - N/A   Overcast
8:53 AM 64.9 °F - 63.0 °F 93% 30.14 in 6.0 mi Variable 3.5 mph - N/A   Mostly Cloudy
9:01 AM 66.2 °F - 64.4 °F 94% 30.16 in 1.0 mi Calm Calm - N/A   Mist
9:23 AM 68.0 °F - 64.4 °F 88% 30.17 in 7.0 mi Calm Calm - N/A   Partly Cloudy
9:53 AM 71.1 °F - 64.9 °F 81% 30.14 in 7.0 mi Calm Calm - N/A   Partly Cloudy
10:53 AM 75.0 °F - 64.9 °F 71% 30.15 in 10.0 mi Variable 4.6 mph - N/A   Scattered Clouds
11:36 AM 75.2 °F - 64.4 °F 69% 30.18 in 10.0 mi East 4.6 mph - N/A   Mostly Cloudy
11:53 AM 75.9 °F - 64.0 °F 67% 30.15 in 10.0 mi Calm Calm - N/A   Mostly Cloudy
12:07 PM 78.8 °F - 64.4 °F 61% 30.18 in 10.0 mi North 3.5 mph - N/A   Scattered Clouds
12:17 PM 77.0 °F - 64.4 °F 65% 30.18 in 10.0 mi Calm Calm - N/A   Mostly Cloudy
12:45 PM 78.8 °F - 64.4 °F 61% 30.18 in 10.0 mi Calm Calm - N/A   Scattered Clouds
12:53 PM 79.0 °F - 64.9 °F 62% 30.14 in 10.0 mi Calm Calm - N/A   Scattered Clouds
1:53 PM 80.1 °F 82.1 °F 66.0 °F 62% 30.13 in 10.0 mi NNE 5.8 mph - N/A   Scattered Clouds
2:53 PM 80.1 °F 81.9 °F 64.9 °F 60% 30.13 in 10.0 mi ENE 5.8 mph - N/A   Mostly Cloudy
3:53 PM 82.0 °F 84.1 °F 66.0 °F 58% 30.12 in 10.0 mi Variable 5.8 mph - N/A   Mostly Cloudy
4:53 PM 80.1 °F 82.3 °F 66.9 °F 64% 30.12 in 10.0 mi NNE 5.8 mph - N/A   Mostly Cloudy
5:53 PM 80.1 °F 82.7 °F 68.0 °F 67% 30.13 in 10.0 mi NE 8.1 mph - N/A   Mostly Cloudy
6:53 PM 80.1 °F 82.3 °F 66.9 °F 64% 30.14 in 10.0 mi NE 5.8 mph - N/A   Clear
7:53 PM 78.1 °F - 68.0 °F 71% 30.14 in 10.0 mi NE 4.6 mph - N/A   Overcast
8:53 PM 75.0 °F - 68.0 °F 79% 30.15 in 10.0 mi East 3.5 mph - N/A   Mostly Cloudy
9:53 PM 75.0 °F - 68.0 °F 79% 30.17 in 10.0 mi East 3.5 mph - N/A   Overcast
10:53 PM 75.9 °F - 64.9 °F 69% 30.18 in 10.0 mi ESE 5.8 mph - N/A   Mostly Cloudy
11:53 PM 75.9 °F - 64.9 °F 69% 30.20 in 10.0 mi ESE 5.8 mph - N/A   Overcast